[Date Prev][Date Next][Thread Prev][Thread Next] - [Date Index][Thread Index][Author Index]
2 Line ISS Keps 12-15
- Subject: [sarex] 2 Line ISS Keps 12-15
- From: "Dave Larsen PhD" <doc@xxxxxxxxxxx>
- Date: Sat, 15 Dec 2001 03:45:47 -0800
ISS
1 25544U 98067A 01349.19806690 .00013037 00000-0 16581-3 0 8409
2 25544 51.6406 257.8775 0001244 50.6662 71.6159 15.59734475175339
----
Via the sarex mailing list at AMSAT.ORG courtesy of AMSAT-NA.
To unsubscribe, send "unsubscribe sarex" to Majordomo@amsat.org
AMSAT Home